Location: Unspecified
(0.0000°N, 0.0000°E)
Time: 10:07:33
(UTC+00:00)

N. Korean satellite - Pass Details

Date: 11 October 2017
Orbit: 459 x 517 km, 97.2° (Epoch: 21 October)

Event Time Altitude Azimuth Distance (km) Brightness Sun altitude
Rises 18:04:59 0° 156° (SSE) 2,619 10.1 -4.6°
Reaches altitude 10° 18:07:12 10° 147° (SSE) 1,724 9.1 -5.1°
Maximum altitude 18:10:39 36° 79° (E) 804 7.2 -6.0°
Drops below altitude 10° 18:14:01 10° 11° (NNE) 1,690 9.1 -6.8°
Sets 18:16:10 0° 3° (N) 2,558 10.1 -7.3°
